Location: Santaluz Observatory
(32.9930°N, 117.1510°W)
Time: 00:58:07
(UTC-08:00)

Hubble Space Telescope - Visible Passes

Search period start: 16 December 2017 00:00
Search period end: 26 December 2017 00:00
Orbit: 537 x 541 km, 28.5° (Epoch: 15 December)

Date Brightness Start Highest point End Pass type
(mag) Time Alt. Az. Time Alt. Az. Time Alt. Az.
16 Dec 2.9 18:37:20 10° WSW 18:40:25 20° SSW 18:41:56 17° S visible
17 Dec 3.3 18:27:25 10° WSW 18:30:06 17° SSW 18:32:48 10° SSE visible
18 Dec 3.5 18:17:40 10° SW 18:19:46 14° SSW 18:21:52 10° S visible
19 Dec 3.8 18:08:28 10° SW 18:09:25 11° SSW 18:10:23 10° SSW visible
